Weather in Ivanovskoye

Russia / Kursk Oblast     51°36′41″N   34°56′56″E
temp.,
°C
wind,
m/s
gust,
m/s
humid.,
%
clouds,
%
prec.,
mm/h
press.,
hPa
HPBL,
m
16 june, wed
wed1600:00+17n22890 0.0 101114
03:00+16n22932 0.0 101130
06:00+16nne35930 0.1 1011113
09:00+21nne45821 0.6 1012445
12:00+23nne45755 2.5 1012778
15:00+23nne457312 3.8 10131089
18:00+22ne47805 0.9 1013783
21:00+18ne35900 1.4 101592
17 june, thu
thu1700:00+16ne512930 0.0 1016263
03:00+15ne310965 0.0 1017222
06:00+15ne4109480 0.0 1018276
09:00+19ne710820 0.0 1019584
12:00+22ene79722 0.0 1020939
15:00+22ne78698 0.0 10201160
18:00+21ne69770 0.0 1021952
21:00+17ne512860 0.0 1022329
18 june, fri
fri1800:00+15ene514870 0.0 1023340
03:00+13ene514900 0.0 1024307
06:00+13ene512880 0.0 1025286
09:00+18e610750 0.0 1025593
12:00+21e68640 0.0 10251007
15:00+22e67630 0.0 10251195
18:00+21e58740 0.0 10251087
21:00+17ene47910 0.0 1025137
19 june, sat
sat1900:00+15e410920 0.0 1026192
03:00+13e49943 0.0 1026166
06:00+14e49901 0.0 1026225
09:00+18e69745 0.0 1026606
12:00+20e68625 0.0 10261032
15:00+21e67622 0.0 10241135
18:00+21ese58734 0.0 1024829
21:00+17e48865 0.0 1024149
20 june, sun
sun2000:00+15e37890 0.0 1024135
03:00+14e37900 0.0 1024130
06:00+15e48900 0.0 1024199
09:00+20e58750 0.0 1024479
12:00+23ese566310 0.0 1023944
15:00+24e566238 0.0 10221101
18:00+23e48735 0.0 1021808
21:00+18e479099 0.0 1021115